Russellville, AR

7:41 PM CDT on April 22, 2018 (GMT -0500)
Russellville Regional

Weather History for KRUE - October, 2012

Change the Weather History Date:

Tuesday, October 2, 2012

  Actual Average (KHOT) Record (KHOT)
Temperature  
Mean Temperature 66 °F -  
Max Temperature 78 °F 83 °F 99 °F (1953)
Min Temperature 54 °F 55 °F 38 °F (1984)
Cooling Degree Days 1    
Growing Degree Days 16 (Base 50)    
Moisture  
Dew Point 52 °F    
Average Humidity 69    
Maximum Humidity 90    
Minimum Humidity 39    
Precipitation  
Precipitation 0.00 in - - ()
Sea Level Pressure  
Sea Level Pressure 29.86 in    
Wind  
Wind Speed 2 mph (WNW)    
Max Wind Speed 10 mph    
Max Gust Speed -    
Visibility 10 miles    
Events      
Averages and records for this station are not official NWS values.
T = Trace of Precipitation, MM = Missing Value Source: NWS Daily Summary

Daily Weather History Graph

Daily Weather History Graph

Search for Another Location

Airport or City:

Astronomy

Oct. 02, 2012 Rise Set
Actual Time 7:08 AM CDT 6:54 PM CDT
Civil Twilight 6:43 AM CDT 7:19 PM CDT
Nautical Twilight 6:13 AM CDT 7:48 PM CDT
Astronomical Twilight 5:44 AM CDT 8:18 PM CDT
Moon 8:15 PM CDT (10/2) 9:28 AM CDT (10/2)
Length of Visible Light 12h 36m
Length of Day
11h 45m
Waning Gibbous, 94% of the Moon is Illuminated
Oct 2
Waning Gibbous
Oct 8
Last Quarter
Oct 15
New
Oct 21
First Quarter
Oct 29
Full

Hourly Weather History & Observations

Time (CDT) Temp. Dew Point Humidity Pressure Visibility Wind Dir Wind Speed Gust Speed Precip Events Conditions
12:53 AM 59.0 °F 51.1 °F 75% 29.80 in 10.0 mi Calm Calm - N/A   Clear
1:53 AM 57.9 °F 52.0 °F 81% 29.81 in 10.0 mi Calm Calm - N/A   Clear
2:53 AM 57.0 °F 52.0 °F 83% 29.81 in 10.0 mi Calm Calm - N/A   Clear
3:53 AM 55.0 °F 52.0 °F 89% 29.82 in 10.0 mi Calm Calm - N/A   Clear
4:53 AM 54.0 °F 51.1 °F 90% 29.83 in 10.0 mi Calm Calm - N/A   Clear
5:53 AM 55.0 °F 52.0 °F 89% 29.84 in 10.0 mi Calm Calm - N/A   Clear
6:53 AM 54.0 °F 51.1 °F 90% 29.86 in 10.0 mi Calm Calm - N/A   Clear
7:53 AM 55.9 °F 52.0 °F 87% 29.88 in 10.0 mi Calm Calm - N/A   Clear
8:53 AM 62.1 °F 51.1 °F 67% 29.90 in 10.0 mi NW 3.5 mph - N/A   Clear
9:53 AM 66.9 °F 52.0 °F 59% 29.91 in 10.0 mi NNW 4.6 mph - N/A   Clear
10:53 AM 70.0 °F 48.9 °F 47% 29.90 in 10.0 mi NNW 4.6 mph - N/A   Clear
11:53 AM 71.1 °F 50.0 °F 47% 29.90 in 10.0 mi WNW 4.6 mph - N/A   Clear
12:53 PM 73.9 °F 50.0 °F 43% 29.88 in 10.0 mi Variable 4.6 mph - N/A   Clear
1:53 PM 75.9 °F 50.0 °F 40% 29.86 in 10.0 mi NW 3.5 mph - N/A   Clear
2:53 PM 77.0 °F 50.0 °F 39% 29.85 in 10.0 mi West 9.2 mph - N/A   Clear
3:53 PM 77.0 °F 51.1 °F 40% 29.84 in 10.0 mi West 6.9 mph - N/A   Clear
4:53 PM 78.1 °F 53.1 °F 42% 29.84 in 10.0 mi WNW 10.4 mph - N/A   Clear
5:53 PM 73.9 °F 53.1 °F 48% 29.85 in 10.0 mi West 4.6 mph - N/A   Clear
7:53 PM 64.0 °F 55.9 °F 75% 29.87 in 10.0 mi Calm Calm - N/A   Clear
8:53 PM 61.0 °F 55.9 °F 83% 29.88 in 10.0 mi Calm Calm - N/A   Clear
9:53 PM 60.1 °F 55.9 °F 86% 29.90 in 10.0 mi Calm Calm - N/A   Clear
10:53 PM 60.1 °F 55.9 °F 86% 29.91 in 10.0 mi Calm Calm - N/A   Clear
11:53 PM 59.0 °F 55.9 °F 90% 29.91 in 10.0 mi Calm Calm - N/A   Clear